Dewpoint
49 51 49 49 50 52 52 55 57 59 58 56 52 57 59 60 59 58 56 53 51 51 49 48 45 42 41 39 36 33 29 28
48 49 50 50 51 53 53 55 57 60 57 52 52 55 57 58 58 57 56 53 51 49 47 46 43 41 40 39 35 31 31 32
49 51 50 50 51 53 54 55 57 59 56 52 53 56 57 56 55 55 54 52 50 47 46 44 43 42 41 38 32 32 33 33
49 51 52 51 50 52 53 55 57 59 57 54 54 57 57 54 52 52 51 50 48 46 46 44 43 40 38 35 34 35 35 35
47 51 52 53 52 53 54 54 56 58 58 54 53 53 54 54 52 50 49 48 47 45 45 44 41 36 34 33 37 37 36 35
45 47 51 52 52 53 55 55 56 58 58 57 56 55 55 55 52 49 49 49 47 45 43 41 38 35 34 36 38 37 37 32
45 47 49 51 53 54 56 56 56 58 59 59 58 56 56 54 51 49 48 47 45 42 39 39 37 34 37 41 39 39 35 32
44 46 48 50 52 56 57 57 57 59 59 59 58 57 57 54 52 49 46 43 42 41 38 37 36 36 41 39 40 36 35 32
43 44 46 48 52 56 57 58 57 59 58 58 59 58 57 55 53 48 43 43 42 41 38 36 35 40 39 39 35 38 35 33
39 42 44 47 50 55 57 57 57 58 57 54 57 57 56 54 52 47 44 44 42 39 38 36 39 37 38 35 36 34 33 36
37 39 42 46 48 53 56 57 56 57 54 56 56 56 56 55 53 48 47 46 43 39 38 36 38 37 35 35 33 32 35 35
41 43 45 47 49 52 54 56 56 56 54 56 57 57 56 56 55 51 49 47 43 39 38 36 35 35 32 33 30 33 32 31
43 46 49 51 52 52 53 55 55 55 56 57 57 57 57 55 53 51 50 46 43 39 38 35 35 31 29 30 31 27 32 33
43 48 50 52 53 54 54 56 55 56 56 56 56 55 54 53 51 50 48 46 44 40 36 33 32 30 31 31 31 35 38 34
41 47 49 51 52 53 54 54 54 53 52 52 52 52 50 50 49 48 48 46 43 38 35 34 33 30 31 33 39 41 38 32
42 46 48 49 51 52 52 52 51 51 49 49 49 49 49 48 47 45 43 40 37 35 34 33 33 34 34 40 41 39 39 34
43 45 47 48 49 49 49 48 47 47 46 45 43 42 42 41 39 38 37 35 33 34 35 34 34 37 40 39 38 38 38 32
41 42 43 44 45 46 45 45 45 44 42 41 40 39 38 37 36 34 33 33 35 37 37 36 36 36 39 37 38 35 35 32
38 39 40 41 41 42 42 41 41 41 40 39 38 37 36 35 34 34 36 38 38 38 37 36 36 38 38 37 37 37 31 29
Wind_Speed
17 22 24 23 23 23 22 18 14 12 12 10 12 11 11 9 10 11 13 11 12 11 11 12 12 10 8 6 5 3 2 1
19 21 25 24 22 21 21 21 19 17 16 15 14 14 12 10 10 11 13 12 14 13 13 14 11 10 8 7 6 4 3 3
20 22 25 28 27 25 24 23 21 19 15 14 13 13 12 12 11 11 12 13 15 14 14 14 11 10 10 8 6 4 3 4
21 23 26 27 28 27 26 24 21 20 18 15 13 10 7 10 11 11 12 14 15 14 14 13 13 12 10 9 9 8 5 6
21 22 25 27 27 26 26 24 22 20 20 18 19 18 14 11 12 11 11 12 14 14 14 14 14 10 10 10 9 9 10 8
25 26 26 23 25 26 25 25 25 22 21 20 18 19 14 12 15 15 15 14 14 15 15 14 13 13 11 10 10 10 8 7
25 23 22 24 25 26 26 27 22 18 15 13 17 19 17 15 18 19 17 16 15 15 14 14 13 11 12 11 11 9 9 8
25 24 25 25 27 26 26 25 25 23 23 23 25 22 20 21 21 20 19 17 15 16 16 16 14 14 12 13 13 12 12 9
27 28 26 25 25 26 26 26 24 26 24 26 23 21 19 20 23 18 19 19 17 17 19 17 16 12 13 12 12 8 10 9
21 25 26 23 23 26 27 24 25 25 26 23 20 19 22 21 19 17 15 15 16 18 21 18 16 15 14 13 10 12 10 10
10 12 14 19 21 21 21 24 26 26 21 15 16 19 20 20 19 20 20 18 20 19 21 20 17 15 14 13 9 11 9 9
4 7 9 13 15 17 19 21 22 23 26 19 17 18 18 17 18 19 19 20 20 19 22 21 18 16 15 14 12 6 9 8
1 5 8 10 13 14 16 16 19 19 20 18 18 14 13 17 18 16 16 17 19 22 22 20 13 14 14 13 9 5 8 10
5 6 8 10 11 11 11 11 12 12 12 12 13 13 13 13 12 12 14 16 18 19 17 18 13 13 12 10 6 1 6 16
3 7 6 7 8 9 9 9 8 8 9 9 9 8 9 9 10 11 13 13 16 16 10 11 5 10 9 8 3 5 12 15
5 7 8 8 9 9 9 8 8 7 6 5 5 5 7 8 8 8 9 10 11 12 14 11 13 11 8 4 3 9 14 18
8 8 9 10 10 11 11 10 7 6 6 5 6 6 6 6 7 8 9 11 13 15 12 13 9 7 7 0 6 12 18 20
13 12 13 13 13 12 12 12 11 10 9 8 7 7 7 8 9 11 12 13 13 15 12 10 12 12 5 9 15 14 18 20
14 14 15 15 15 16 16 15 14 14 13 11 10 10 10 11 12 14 14 13 13 13 11 11 12 10 11 13 16 16 20 22
Wind_Direction
171 173 177 177 176 184 192 201 206 205 200 193 193 191 190 181 187 188 188 178 174 175 159 159 168 157 147 138 134 104 71 300
184 186 183 191 194 199 203 201 207 203 201 198 192 200 197 194 197 189 191 185 180 177 168 167 170 161 149 152 147 144 165 231
196 196 196 199 201 201 205 207 211 208 205 205 207 208 206 203 200 192 196 189 186 183 176 170 172 155 164 162 162 166 226 237
201 204 205 205 208 207 211 213 211 209 210 200 198 188 194 196 197 195 195 192 184 186 183 174 171 175 173 171 178 201 221 215
208 204 209 209 211 212 214 217 217 210 207 206 205 207 209 209 205 198 185 188 193 193 185 181 174 171 177 181 186 205 209 225
211 209 208 208 206 209 211 215 216 210 207 213 210 221 223 199 202 192 189 187 197 197 187 180 179 180 180 190 196 212 223 234
222 219 211 206 204 205 205 209 209 215 204 205 225 217 215 201 203 196 192 190 192 197 189 188 188 183 184 197 198 200 226 233
224 220 215 211 204 202 204 201 191 196 186 197 215 218 219 205 208 199 192 181 184 193 194 193 192 190 192 191 195 210 211 215
225 223 219 217 212 206 207 200 192 172 183 210 211 213 215 212 215 200 188 186 190 187 193 196 197 182 192 191 207 215 216 217
229 229 223 217 214 211 208 205 201 190 190 200 203 209 212 216 209 194 188 186 196 196 196 195 186 193 197 196 200 218 220 224
224 224 225 220 217 211 206 206 207 193 199 205 202 209 214 217 208 202 194 195 205 195 197 196 186 191 191 202 218 211 226 232
187 189 186 199 203 204 201 207 207 201 204 207 214 221 219 219 216 211 199 196 200 195 196 197 189 194 189 189 214 222 234 248
174 158 162 172 185 194 196 200 206 208 209 212 218 220 217 212 212 207 203 204 204 202 201 198 181 187 189 203 200 199 254 272
168 159 161 165 173 180 184 188 197 196 200 208 212 208 205 213 210 205 201 208 212 211 205 199 176 177 189 196 146 284 284 263
207 156 152 149 150 158 168 173 172 174 185 194 209 201 195 200 202 203 207 206 209 204 156 158 176 201 176 158 112 329 286 273
199 167 142 133 129 130 134 137 142 156 170 179 178 187 190 196 197 195 195 189 165 153 151 130 140 151 175 135 245 286 282 275
129 126 119 111 111 111 114 113 113 125 125 126 125 147 152 151 145 147 147 137 137 125 123 139 148 182 176 286 284 288 280 276
114 106 100 97 97 102 96 101 110 107 104 101 108 118 125 131 131 128 126 122 113 111 126 144 192 217 229 275 278 273 274 279
110 107 101 95 95 96 100 98 97 95 94 96 99 103 106 110 110 113 116 121 128 142 164 199 230 261 261 263 276 276 277 278